EW6240 Anveville FR current weather conditions

sailwx.info

Wind from 043 at 3 knots gusting 4

Air temperature 3.3° C
Dewpoint 2.3° C

Last reported at 2019-Dec-05 21:35 UTC.
Time now 2019-Dec-06 00:12 UTC

Location: N 49°42' E 000°44'.
View on Google Maps.

See reports from other nearby stations

  
Tides and Currents Weather Stations Pressure Air Temp Water Temp Dewpoint Dewpoint Depression Visibility Wind Speed Wind Dir Waves Ship Positions
date/time (UTC)wind fromknots sea level pressurealtimeterstation pressurevisibilityair tempwater tempwave heightnotes
2019-Dec-05 21:35 043 3 gusting 4 3.3
2019-Dec-05 21:30 074 1 gusting 4 3.3
2019-Dec-05 21:25 051 1 gusting 5 3.3
2019-Dec-05 21:20 046 2 gusting 6 3.3
2019-Dec-05 21:15 144 2 gusting 6 3.3
2019-Dec-05 21:10 072 3.3
2019-Dec-05 21:05 060 1 gusting 2 3.3
2019-Dec-05 21:00 037 3.3
2019-Dec-05 20:55 030 3.3
2019-Dec-05 20:50 032 2 gusting 6 3.3
2019-Dec-05 20:45 057 3 gusting 6 3.3
2019-Dec-05 20:40 075 3 gusting 6 3.3
2019-Dec-05 20:35 088 3 gusting 6 3.3
2019-Dec-05 20:30 136 4 gusting 6 3.3
2019-Dec-05 20:25 159 1 gusting 6 3.3
2019-Dec-05 20:20 065 4 gusting 6 3.3
2019-Dec-05 20:15 030 3 gusting 6 2.8
2019-Dec-05 20:10 021 3 gusting 6 2.8
2019-Dec-05 20:05 023 2 gusting 6 2.8
2019-Dec-05 20:00 027 5 gusting 5 2.8
2019-Dec-05 19:55 134 1 gusting 6 2.8
2019-Dec-05 19:50 137 5 gusting 6 2.8
2019-Dec-05 19:45 038 1 gusting 6 2.8
2019-Dec-05 19:40 031 4 gusting 6 2.8
2019-Dec-05 19:35 023 3 gusting 5 2.8
2019-Dec-05 19:30 023 4 gusting 6 2.8
2019-Dec-05 19:25 036 2 gusting 6 2.8
2019-Dec-05 19:20 157 2.8
2019-Dec-05 19:15 163 2 gusting 4 2.8
2019-Dec-05 19:10 103 2 gusting 6 2.8
2019-Dec-05 19:05 051 1 gusting 6 2.8
2019-Dec-05 19:00 172 1 gusting 3 2.8
2019-Dec-05 18:55 177 2 gusting 3 2.8
2019-Dec-05 18:50 119 3 gusting 3 2.8
2019-Dec-05 18:45 027 2.8
2019-Dec-05 18:40 023 2.8
2019-Dec-05 18:35 023 1 gusting 3 3.3
2019-Dec-05 18:30 022 3 gusting 3 3.3
2019-Dec-05 18:25 025 0 gusting 4 3.3
2019-Dec-05 18:20 048 3.3
2019-Dec-05 18:15 064 4 gusting 5 3.3
2019-Dec-05 18:10 047 0 gusting 5 3.3
2019-Dec-05 18:05 076 1 gusting 5 3.3
2019-Dec-05 18:00 094 3.3
2019-Dec-05 17:55 081 3 gusting 5 3.3
2019-Dec-05 17:50 079 3.3
2019-Dec-05 17:45 049 2 gusting 3 3.3
2019-Dec-05 17:40 051 0 gusting 3 3.3
2019-Dec-05 17:35 037 3.3
2019-Dec-05 17:30 028 3.3
2019-Dec-05 17:25 027 3.3
2019-Dec-05 17:20 032 4 gusting 5 3.3
2019-Dec-05 17:15 067 2 gusting 3 3.3
2019-Dec-05 17:10 055 1 gusting 3 3.3
2019-Dec-05 17:05 044 3.3
2019-Dec-05 17:00 044 3.3
2019-Dec-05 16:55 040 3.3
2019-Dec-05 16:50 045 1 gusting 2 3.3
2019-Dec-05 16:45 054 1 gusting 3 3.3
2019-Dec-05 16:40 049 3.3
2019-Dec-05 16:35 100 0 gusting 4 3.3
2019-Dec-05 16:30 107 0 gusting 3 3.9
2019-Dec-05 16:25 077 3.9
2019-Dec-05 16:20 058 3.9
2019-Dec-05 16:15 054 3.9
2019-Dec-05 16:10 169 1 gusting 3 3.9
2019-Dec-05 16:05 106 1 gusting 4 4.4
2019-Dec-05 16:00 087 4.4
2019-Dec-05 15:55 069 4.4
2019-Dec-05 15:50 035 2 gusting 5 4.4
2019-Dec-05 15:45 024 4 gusting 4 4.4
2019-Dec-05 15:40 117 3 gusting 4 4.4
2019-Dec-05 15:35 154 1 gusting 4 5.0
2019-Dec-05 15:30 093 3 gusting 4 5.0
2019-Dec-05 15:25 030 3 gusting 4 5.0
2019-Dec-05 15:20 031 0 gusting 5 5.0
2019-Dec-05 15:15 116 1 gusting 5 5.6
2019-Dec-05 15:10 171 1 gusting 4 5.6
2019-Dec-05 15:05 158 2 gusting 4 5.6
2019-Dec-05 15:00 027 1 gusting 2 5.6
2019-Dec-05 14:55 035 5.6
2019-Dec-05 14:50 032 1 gusting 5 5.6
2019-Dec-05 14:45 025 3 gusting 5 5.6
2019-Dec-05 14:40 035 2 gusting 6 5.6
2019-Dec-05 14:35 131 3 gusting 6 5.6
2019-Dec-05 14:30 139 5 gusting 5 5.6
2019-Dec-05 14:25 131 1 gusting 5 5.6
2019-Dec-05 14:20 133 2 gusting 5 5.6
2019-Dec-05 14:15 049 2 gusting 4 6.1
2019-Dec-05 14:10 156 0 gusting 6 6.1
2019-Dec-05 14:05 159 1 gusting 6 6.1
2019-Dec-05 14:00 047 4 gusting 5 6.1
2019-Dec-05 13:55 101 2 gusting 5 6.1
2019-Dec-05 13:50 089 1 gusting 5 6.1
2019-Dec-05 13:45 059 2 gusting 6 6.1
2019-Dec-05 13:40 110 2 gusting 6 6.1
2019-Dec-05 13:35 140 2 gusting 7 5.6
2019-Dec-05 13:30 167 2 gusting 7 6.1
2019-Dec-05 13:25 178 3 gusting 4 5.6
2019-Dec-05 13:20 165 2 gusting 5 5.6
2019-Dec-05 13:15 056 3 gusting 5 5.6
2019-Dec-05 13:10 043 0 gusting 4 5.6
2019-Dec-05 13:05 048 1 gusting 4 5.6
2019-Dec-05 13:00 052 1 gusting 3 5.6
2019-Dec-05 12:55 039 0 gusting 3 5.6
2019-Dec-05 12:50 034 2 gusting 4 6.1
2019-Dec-05 12:45 065 3 gusting 4 5.6
2019-Dec-05 12:40 146 1 gusting 4 6.1
2019-Dec-05 12:35 158 1 gusting 4 6.1
2019-Dec-05 12:30 132 1 gusting 4 6.1
2019-Dec-05 12:25 131 0 gusting 3 6.1
2019-Dec-05 12:20 144 2 gusting 3 6.1
2019-Dec-05 12:15 174 1 gusting 2 6.1
2019-Dec-05 12:10 164 5.6
2019-Dec-05 12:05 155 1 gusting 4 5.6
2019-Dec-05 12:00 100 0 gusting 4 5.6
2019-Dec-05 11:55 063 0 gusting 2 5.0
2019-Dec-05 11:50 090 5.0
2019-Dec-05 11:45 156 5.0
2019-Dec-05 11:40 160 1 gusting 5 4.4
2019-Dec-05 11:35 145 4.4
2019-Dec-05 11:30 073 4.4
2019-Dec-05 11:25 038 2 gusting 4 4.4
2019-Dec-05 11:20 044 2 gusting 3 4.4
2019-Dec-05 11:15 039 0 gusting 3 4.4
2019-Dec-05 11:10 035 0 gusting 3 4.4
2019-Dec-05 11:05 117 1 gusting 3 3.9
2019-Dec-05 11:00 152 0 gusting 3 3.9
2019-Dec-05 10:55 051 3.9
2019-Dec-05 10:50 131 1 gusting 2 3.3
2019-Dec-05 10:45 181 3.3
2019-Dec-05 10:40 085 1 gusting 3 3.3
2019-Dec-05 10:35 035 1 gusting 3 3.3
2019-Dec-05 10:30 025 3.3
2019-Dec-05 10:25 023 1 gusting 2 3.3
2019-Dec-05 10:20 023 3.3
2019-Dec-05 10:15 023 2.8
2019-Dec-05 10:10 026 2 gusting 3 2.8
2019-Dec-05 10:05 035 0 gusting 3 3.3
2019-Dec-05 10:00 049 1 gusting 4 3.3
2019-Dec-05 09:55 096 3.3
2019-Dec-05 09:50 098 2.8
2019-Dec-05 09:45 047 0 gusting 3 2.8
2019-Dec-05 09:40 100 2.8
2019-Dec-05 09:35 163 1 gusting 3 2.8
2019-Dec-05 09:30 175 1 gusting 3 2.2
2019-Dec-05 09:25 118 3 gusting 3 2.2
2019-Dec-05 09:20 023 0 gusting 1 2.2
2019-Dec-05 09:15 023 0 gusting 1 2.2
2019-Dec-05 09:10 094 1.7
2019-Dec-05 09:05 081 1 gusting 3 1.7
2019-Dec-05 09:00 034 1 gusting 3 1.7
2019-Dec-05 08:55 047 1 gusting 2 1.7
2019-Dec-05 08:50 026 1.7
2019-Dec-05 08:45 023 1.7
2019-Dec-05 08:40 023 1.7
2019-Dec-05 08:35 023 1.7
2019-Dec-05 08:30 023 1.1
2019-Dec-05 08:25 023 1 gusting 2 1.1
2019-Dec-05 08:20 023 1.1
2019-Dec-05 08:15 023 0 gusting 3 1.1
2019-Dec-05 08:10 022 1 gusting 3 1.1
2019-Dec-05 08:05 022 1.1
2019-Dec-05 08:00 022 1 gusting 2 1.1
2019-Dec-04 21:50 -0.6
2019-Dec-04 21:45 022 -0.6
2019-Dec-04 21:40 170 -0.6
2019-Dec-04 21:35 061 -0.6
2019-Dec-04 21:30 028 1 gusting 3 -0.6
2019-Dec-04 21:25 028 1 gusting 3 -0.6
2019-Dec-04 21:20 029 -0.6
2019-Dec-04 21:15 030 2 gusting 3 -0.6
2019-Dec-04 21:10 025 -0.6
2019-Dec-04 21:05 037 -0.6
2019-Dec-04 21:00 034 -0.6
2019-Dec-04 20:55 023 -0.6
2019-Dec-04 20:50 023 0 gusting 2 -0.6
2019-Dec-04 20:45 022 -0.6
2019-Dec-04 20:40 023 -0.6
2019-Dec-04 20:35 023 -0.6
2019-Dec-04 20:30 023 1 gusting 1 -0.6
2019-Dec-04 20:25 023 -0.6
2019-Dec-04 20:20 026 0 gusting 1 -0.6
2019-Dec-04 20:15 034 0 gusting 2 -0.6
2019-Dec-04 20:10 032 -0.6
2019-Dec-04 20:05 023 0 gusting 1 -0.6
2019-Dec-04 20:00 022 -0.6
2019-Dec-04 19:55 037 0 gusting 1 -0.6
2019-Dec-04 19:50 043 -0.6
2019-Dec-04 19:45 033 -0.6
2019-Dec-04 19:40 046 -0.6
2019-Dec-04 19:35 083 -0.6
2019-Dec-04 19:30 028 1 gusting 3 -0.6
2019-Dec-04 19:25 026 -0.6
2019-Dec-04 19:20 024 -0.6
2019-Dec-04 19:15 023 -0.6
2019-Dec-04 19:10 023 -0.6
2019-Dec-04 19:05 023 -0.6
2019-Dec-04 19:00 023 -0.6
2019-Dec-04 18:55 023 -0.6
2019-Dec-04 18:50 138 -0.6
2019-Dec-04 18:45 137 -0.6
2019-Dec-04 18:40 023 -0.6
2019-Dec-04 18:35 023 -0.6
2019-Dec-04 18:30 023 1 gusting 2 -0.6
2019-Dec-04 18:25 023 0 gusting 2 -0.6
2019-Dec-04 18:20 023 0 gusting 3 -0.6
2019-Dec-04 18:15 023 -0.6
2019-Dec-04 18:10 027 -0.6
2019-Dec-04 18:05 044 -0.6
2019-Dec-04 18:00 085 2 gusting 2 -0.6
2019-Dec-04 17:55 090 0 gusting 1 -0.6
2019-Dec-04 17:50 090 -0.6
2019-Dec-04 17:45 057 -0.6
2019-Dec-04 17:40 045 -0.6
2019-Dec-04 17:35 033 0 gusting 3 -0.6
2019-Dec-04 17:30 028 -0.6
2019-Dec-04 17:25 023 -0.6
2019-Dec-04 17:20 023 -0.6
2019-Dec-04 17:15 023 0 gusting 1 -0.6
2019-Dec-04 17:10 023 0 gusting 1 -0.6
2019-Dec-04 17:05 028 -0.6
2019-Dec-04 17:00 031 -0.0
2019-Dec-04 16:55 030 2 gusting 3 -0.0
2019-Dec-04 16:50 037 -0.0
2019-Dec-04 16:45 051 0 gusting 4 -0.0
2019-Dec-04 16:40 050 1 gusting 3 -0.0
2019-Dec-04 16:35 035 3 gusting 3 -0.0
2019-Dec-04 16:30 035 -0.0
2019-Dec-04 16:25 118 1 gusting 1 -0.0
2019-Dec-04 16:20 060 1 gusting 3 -0.0
2019-Dec-04 16:15 058 0.6
2019-Dec-04 16:10 078 0.6
2019-Dec-04 16:05 080 1 gusting 3 0.6
2019-Dec-04 16:00 088 0.6
2019-Dec-04 15:55 090 0.6
2019-Dec-04 15:50 072 0.6
2019-Dec-04 15:45 059 1 gusting 1 0.6
2019-Dec-04 15:40 082 0 gusting 4 1.1
2019-Dec-04 15:35 077 1.1
2019-Dec-04 15:30 059 0 gusting 2 1.1
2019-Dec-04 15:25 022 1.1
2019-Dec-04 15:20 071 1.1
2019-Dec-04 15:15 079 1.1
2019-Dec-04 15:10 086 2 gusting 3 1.7
2019-Dec-04 15:05 081 1.7
2019-Dec-04 15:00 094 1.7
2019-Dec-04 14:55 093 1.7
2019-Dec-04 14:50 090 0 gusting 1 1.7
2019-Dec-04 14:45 090 1.7
2019-Dec-04 14:40 090 1.7
2019-Dec-04 14:35 090 1.7
2019-Dec-04 14:30 090 2.2
2019-Dec-04 14:25 090 2.2
2019-Dec-04 14:20 090 2.2
2019-Dec-04 14:15 090 2.2
2019-Dec-04 14:10 090 2.2
2019-Dec-04 14:05 090 2.2
2019-Dec-04 14:00 090 2.2
2019-Dec-04 13:55 090 2.2
2019-Dec-04 13:50 110 2.2
2019-Dec-04 13:45 132 2.2
2019-Dec-04 13:40 127 2.8
2019-Dec-04 13:35 121 2 gusting 2 2.2
2019-Dec-04 13:30 099 2.2
2019-Dec-04 13:25 091 2.2
2019-Dec-04 13:20 104 2.2
2019-Dec-04 13:15 112 2.2
2019-Dec-04 13:10 089 0 gusting 4 2.2
2019-Dec-04 13:05 060 0 gusting 4 2.2
2019-Dec-04 13:00 055 2.2
2019-Dec-04 12:55 067 2.2
2019-Dec-04 12:50 082 2.2
2019-Dec-04 12:45 071 0 gusting 4 2.2
2019-Dec-04 12:40 068 2.2
2019-Dec-04 12:35 069 1 gusting 4 2.2
2019-Dec-04 12:30 077 3 gusting 4 2.2
2019-Dec-04 12:25 093 2.2
2019-Dec-04 12:20 092 2.2
2019-Dec-04 12:15 082 1.7
2019-Dec-04 12:10 051 3 gusting 4 1.7
2019-Dec-04 12:05 026 1.7
2019-Dec-04 12:00 034 2 gusting 3 1.7
2019-Dec-04 11:55 046 2 gusting 4 1.1
2019-Dec-04 11:50 060 1.1
2019-Dec-04 11:45 067 0 gusting 6 1.1
2019-Dec-04 11:40 065 1.1
2019-Dec-04 11:35 072 1.7
2019-Dec-04 11:30 086 1.7
2019-Dec-04 11:25 098 1.7
2019-Dec-04 11:20 099 1.7
2019-Dec-04 11:15 072 0 gusting 3 1.7
2019-Dec-04 11:10 052 0 gusting 3 1.1
2019-Dec-04 11:05 085 1 gusting 4 1.1
2019-Dec-04 11:00 125 1.1
2019-Dec-04 10:55 066 1 gusting 6 1.1
2019-Dec-04 10:50 036 1 gusting 6 1.1
2019-Dec-04 10:45 041 1.1
2019-Dec-04 10:40 051 0 gusting 4 0.6
2019-Dec-04 10:35 079 3 gusting 3 0.6
2019-Dec-04 10:30 075 1 gusting 5 0.6
2019-Dec-04 10:25 067 0.6
2019-Dec-04 10:20 081 6 gusting 6 0.6
2019-Dec-04 10:15 090 0.6
2019-Dec-04 10:10 090 1 gusting 5 0.6
2019-Dec-04 10:05 090 0.6
2019-Dec-04 10:00 090 2 gusting 5 0.6
2019-Dec-04 09:55 090 0.6
2019-Dec-04 09:50 090 2 gusting 3 0.6
2019-Dec-04 09:45 090 1 gusting 3 -0.0
2019-Dec-04 09:40 090 1 gusting 3 -0.0
2019-Dec-04 09:35 090 0 gusting 3 -0.0
2019-Dec-04 09:30 090 -0.0
2019-Dec-04 09:25 090 -0.0
2019-Dec-04 09:20 090 1 gusting 6 -0.0
2019-Dec-04 09:15 090 3 gusting 6 -0.0
2019-Dec-04 09:10 090 -0.0
2019-Dec-04 09:05 090 4 gusting 6 -0.0
2019-Dec-04 09:00 090 1 gusting 3 -0.0
2019-Dec-04 08:55 090 3 gusting 3 -0.6
2019-Dec-04 08:50 090 -0.6
2019-Dec-04 08:45 090 -0.6
2019-Dec-04 08:40 090 0 gusting 4 -0.6
2019-Dec-04 08:35 090 -0.6
2019-Dec-04 08:30 090 1 gusting 3 -0.6
2019-Dec-04 08:25 090 1 gusting 3 -0.6
2019-Dec-04 08:20 090 -0.6
2019-Dec-04 08:15 090 -0.6
2019-Dec-04 08:10 090 1 gusting 6 -0.6
2019-Dec-04 08:05 090 4 gusting 6 -0.6
2019-Dec-04 08:00 090 -0.6
2019-Dec-04 07:55 090 -0.6